Вернуться в каталог

STARLINK-38142

АктивенСвязьSSO
NORAD 100183·PAYLOAD·🇺🇸 United States

Запущен Aug 1, 2026 с Vandenberg Space Force Base

Loading…

Ближайшие Пролёты (ближайшие 24 часа)

TLE

СвежийSource: Space-Track

Эпоха: Sep 14, 2026, 12:01 UTC

1 A0183U 26175E   26257.50126038  .00217810  00000-0  14184-2 0  9999
2 A0183  97.2842  99.6674 0003368  78.4805 281.6838 15.75281310  8231

Отслеживайте STARLINK-38142 в реальном времени с AllMySat

Download on the App Store